Location: Eschertshofen
(49.3064°N, 11.5756°E)
Time: 22:28:26
(UTC+00:00)

Cosmos 1125 Rocket - Pass Details

Date: 18 September 2020
Orbit: 758 x 779 km, 74.0° (Epoch: 30 October)

Event Time Altitude Azimuth Distance (km) Brightness Sun altitude
Rises 18:57:30 0° 178° (S) 3,244 6.5 -16.3°
Reaches altitude 10° 19:00:00 10° 170° (S) 2,323 5.7 -16.7°
Maximum altitude 19:04:52 39° 103° (ESE) 1,165 3.9 -17.5°
Drops below altitude 10° 19:09:46 10° 37° (NE) 2,343 5.9 -18.2°
Sets 19:12:17 0° 29° (NNE) 3,275 6.7 -18.6°
